Find Starlink 1301

NORAD ID: 45361 Int'l Des: 2020-019 Owner: SPXS Country: US Constellation: starlink operational
LEOCIRCULAR

リアルタイム位置

3D地球を読み込み中...

Starlink 1301について

説明を読み込み中...

次回通過

Passes for default location (London). Set your location on the main map for personalized predictions.

高度履歴

Loading altitude history...

軌道要素

1 45361U 20019B 26124.47554017 .00061729 00000-0 45985-3 0 9998
2 45361 53.0386 188.7985 0006154 19.5420 340.5832 15.72189809339368
Epoch: May 4, 2026 • Age: 5 hours

現在のステータス

高度 355.9 km
速度 7.70 km/s
衛星直下点 17.06°N, 118.06°W
打ち上げ日 Mar 18, 2020
運用期間 6.1 years
タイプ internet

技術仕様

分類 Payload
質量 260.00 kg
乾燥質量 248.00 kg
総質量 260.00 kg
長さ 0.20 m
直径 2.80 m
スパン 9.00 m
形状 Box + pan
製造者 SPXS
バスタイプ Starlink
フェーズステータス In Orbit
所有者/国 SPXS/US

Most Searched